OV1-9

Satellite information

Favourite Embed

Satellite Type and Status

PAYLOADIN ORBIT

Key statistics

Satellite OV1-9 at a glance.

Uptime

21455

Days in orbit

Revolutions

≈ 10.4

Per day

Orbit

HEO

HEO

Inclination

99.1

Latest

Satellite identification and parameters

Extended collection of information and parameters for OV1-9.

Object identification

Identified? True

Debris? False

Object name: OV1-9

International designator: 1966-111A

Object number (NORAD): 2610

Object ID (CCSDS): 2610

Country: UNITED STATES OF AMERICA (US)

Current information (Y/N): Y

RCS size: MEDIUM

Orbital parameters

Period: 138.543 minutes

Inclination: 99.1032 deg

SMA: 8869.159 km

Apoapsis: 4507.042 km

Periapsis: 475.005 km

RAAN: 179.3585 deg

Eccentricy: 0.22730662

Argument of periapsis: 90.6693 deg

Mean anomaly: 295.3 deg

Mean motion: 10.39391429 rev/day

Mean motion (dot): 0.00000939 rev/day2

B* drag term: 0.00037648005 1/REarth

Two-line elements (TLE)

Creation date: Sept. 7, 2025, 3:09 a.m.

Reference frame: TEME

Reference center: EARTH

Epoch: Sept. 6, 2025, 7:09 p.m. UTC

TLE line 0: 0 OV1-9

TLE line 1: 1 02610U 66111A 25249.79814676 .00000939 00000-0 37648-3 0 9996

TLE line 2: 2 02610 99.1032 179.3585 2273066 90.6693 295.3000 10.39391429203580

Live tracking on map

Real-time ground track for satellite OV1-9.

In-orbit conjunctions

A list of the most updated potential collisions computed for object OV1-9.

Target Orbit TCA Probability of collision Miss distance Type
THORAD AGENA D DEB SSO 2025-03-29 08:27:56 0.0003651528 610.0 (m) DEBRIS
CZ-6A DEB LEO 2024-10-04 14:21:25 0.0001860079 176.0 (m) DEBRIS

Associated space launch

The OV1 (Orbiting Vehicle 1) were small research satellite to be launched piggy back on Atlas ICBM test flights. They consisted in general of the OV1 satellite and the OV1-PM propulsion module (or upper stage) to reach orbit.

OV1-9 was lifted into orbit during the mission ‘Atlas D | OV1-9 & 10’, on board a Atlas D space rocket.

The launch took place on Dec. 11, 1966, 9:09 p.m. from 576B3.

For more information about the launch, click the button.

Launch to space Atlas D | OV1-9 & 10
Atlas D | OV1-9 & 10

Agency: N/A

Status: Launch Successful

Launch date: Dec. 11, 1966, 9:09 p.m. UTC

Rocket: Atlas D

Launch pad: 576B3

Location: Vandenberg SFB, CA, USA

...

Latest news about this satellite

There are no fresh news available about this satellite. Check back as we update our databases every day.


Newsletter sign-up

Weekly statistics, charts and insights to help you stay on top of the space industry.